Yangon, Myanmar

2:28 AM +0630 on November 20, 2017 (GMT +0630)
Yangon International

Weather History for VYYY - November, 2017

Change the Weather History Date:

Tuesday, November 14, 2017

  Actual Average Record
Temperature  
Mean Temperature 82 °F -  
Max Temperature 91 °F - - ()
Min Temperature 72 °F - - ()
Cooling Degree Days 16    
Growing Degree Days 32 (Base 50)    
Moisture  
Dew Point 77 °F    
Average Humidity 82    
Maximum Humidity 94    
Minimum Humidity 61    
Precipitation  
Precipitation 0.00 in - - ()
Sea Level Pressure  
Sea Level Pressure 29.81 in    
Wind  
Wind Speed 3 mph ()    
Max Wind Speed 7 mph    
Max Gust Speed -    
Visibility 4.0 miles    
Events      
T = Trace of Precipitation, MM = Missing Value Source: Averaged Metar Reports

Daily Weather History Graph

Daily Weather History Graph

Search for Another Location

Airport or City:

Trip Planner

Search our weather history database for the weather conditions in past years. The results will help you decide how hot, cold, wet, or windy it might be!

Date:

Astronomy

Nov. 14, 2017 Rise Set
Actual Time 6:09 AM +0630 5:30 PM +0630
Civil Twilight 5:46 AM +0630 5:53 PM +0630
Nautical Twilight 5:20 AM +0630 6:19 PM +0630
Astronomical Twilight 4:54 AM +0630 6:45 PM +0630
Moon 2:26 AM +0630 (11/14) 2:55 PM +0630 (11/14)
Length of Visible Light 12h 06m
Length of Day
11h 21m
Waning Crescent, 17% of the Moon is Illuminated
Nov 14
Waning Crescent
Nov 18
New
Nov 26
First Quarter
Dec 3
Full
Dec 10
Last Quarter

Hourly Weather History & Observations

Time (+0630) Temp. Heat Index Dew Point Humidity Pressure Visibility Wind Dir Wind Speed Gust Speed Precip Events Conditions
12:30 AM 78.8 °F - 77.0 °F 94% 29.80 in 4.3 mi SW 2.3 mph - N/A   Partly Cloudy
5:00 AM 77.0 °F - 73.4 °F 89% 29.77 in 3.7 mi NW 2.3 mph - N/A   Scattered Clouds
5:30 AM 77.0 °F - 73.4 °F 89% 29.80 in 3.7 mi NW 2.3 mph - N/A   Haze
6:30 AM 77 °F - 76 °F 94% 29.80 in 4 mi SE 1.2 mph - -   Scattered Clouds
6:30 AM 77.0 °F - 73.4 °F 89% 29.83 in 1.2 mi NW 2.3 mph - N/A   Scattered Clouds
7:00 AM 77.0 °F - 73.4 °F 89% 29.83 in 1.2 mi NNW 3.5 mph - N/A   Mostly Cloudy
8:30 AM 78.8 °F - 77.0 °F 94% 29.89 in 2.5 mi North 3.5 mph - N/A   Mostly Cloudy
9:00 AM 80.6 °F 86.2 °F 75.2 °F 84% 29.89 in 3.7 mi NE 3.5 mph - N/A   Haze
9:30 AM 82 °F - 79 °F 87% 29.89 in 4 mi SSE 3.5 mph - -   Haze
9:30 AM 80.6 °F 86.2 °F 75.2 °F 84% 29.89 in 3.7 mi NE 4.6 mph - N/A   Haze
10:00 AM 80.6 °F 86.2 °F 75.2 °F 84% 29.89 in 3.7 mi East 4.6 mph - N/A   Haze
10:30 AM 80.6 °F 86.2 °F 75.2 °F 84% 29.86 in 4.3 mi SE 4.6 mph - N/A   Mostly Cloudy
11:00 AM 84.2 °F 96.1 °F 78.8 °F 84% 29.86 in 4.3 mi NW 3.5 mph - N/A   Mostly Cloudy
12:00 PM 86.0 °F - - N/A% 29.80 in 4.3 mi WSW 2.3 mph - N/A   Mostly Cloudy
12:30 PM 85 °F - 76 °F 68% 29.83 in 4 mi East 2.3 mph - -   Scattered Clouds
12:30 PM 86.0 °F 96.9 °F 77.0 °F 74% 29.80 in 4.3 mi South 6.9 mph - N/A   Scattered Clouds
1:00 PM 87.8 °F - - N/A% 29.77 in 4.3 mi SSE 2.3 mph - N/A   Scattered Clouds
2:30 PM 89.6 °F 102.2 °F 77.0 °F 66% 29.74 in 5.0 mi East 4.6 mph - N/A   Scattered Clouds
3:00 PM 89.6 °F 102.2 °F 77.0 °F 66% 29.74 in 5.0 mi East 6.9 mph - N/A   Scattered Clouds
3:30 PM 89 °F - 77 °F 61% 29.78 in 4 mi SW 2.3 mph - -   Partly Cloudy
3:30 PM 89.6 °F 102.2 °F 77.0 °F 66% 29.74 in 5.0 mi NNE 6.9 mph - N/A   Scattered Clouds
4:00 PM 89.6 °F 102.2 °F 77.0 °F 66% 29.74 in 5.0 mi ENE 4.6 mph - N/A   Scattered Clouds
5:00 PM 87.8 °F 99.7 °F 77.0 °F 70% 29.74 in 4.3 mi NE 4.6 mph - N/A   Scattered Clouds
5:30 PM 87.8 °F - - N/A% 29.77 in 4.3 mi NW 3.5 mph - N/A   Scattered Clouds
6:00 PM 86.0 °F - - N/A% 29.77 in 4.3 mi WNW 3.5 mph - N/A   Scattered Clouds
6:30 PM 82 °F - 79 °F 87% 32.12 in 3 mi NNW 2.3 mph - -   Partly Cloudy
7:00 PM 86.0 °F 96.9 °F 77.0 °F 74% 29.80 in 4.3 mi NNW 3.5 mph - N/A   Scattered Clouds
8:00 PM 84.2 °F 96.1 °F 78.8 °F 84% 29.80 in 4.3 mi NW 4.6 mph - N/A   Scattered Clouds
9:00 PM 80.6 °F 88.1 °F 78.8 °F 94% 29.83 in 4.3 mi NW 5.8 mph - N/A   Scattered Clouds
10:30 PM - - - N/A% 29.83 in 4.3 mi SE 5.8 mph - N/A   Scattered Clouds
11:00 PM 80.6 °F 88.1 °F 78.8 °F 94% 29.83 in 4.3 mi NNW 4.6 mph - N/A   Scattered Clouds
11:30 PM 80.6 °F 88.1 °F 78.8 °F 94% 29.83 in 4.3 mi NW 5.8 mph - N/A   Scattered Clouds